Regional Weather Roundup
Issued by NWS

Home | Current Version | Previous Version | Text Only | Print | Product List | Glossary On
Versions: 1 2 3 4 5 6 7 8 9 10 11 12 13 14 15 16 17 18 19 20 21 22 23 24 25 26 27 28 29 30 31 32 33 34 35 36 37 38 39 40 41 42 43 44 45 46 47 48 49 50
000
ASUS43 KMPX 251410
RWRMN
WEATHER ROUNDUP FOR MINNESOTA
NATIONAL WEATHER SERVICE TWIN CITIES/CHANHASSEN MN
900 AM CDT SAT MAR 25 2017


NOTE: "FAIR" INDICATES FEW OR NO CLOUDS BELOW 12,000 FEET WITH NO
SIGNIFICANT WEATHER AND/OR OBSTRUCTIONS TO VISIBILITY. N/A MEANS
CURRENT SKY AND/OR WEATHER CONDITIONS ARE NOT AVAILABLE.

MNZ060>063-068>070-251500-
   Twin Cities Metro

CITY           SKY/WX    TMP DP  RH WIND       PRES   REMARKS
TWIN CITIES    CLOUDY    37  30  75 E13G23    30.18R
ST PAUL        CLOUDY    37  32  82 E13       30.19S
CRYSTAL        CLOUDY    37  29  72 E9G21     30.17S
BLAINE         CLOUDY    37  34  87 E14       30.18S
LAKEVILLE      CLOUDY    36  34  93 E13       30.16R
EDEN PRAIRIE   CLOUDY    38  31  76 E13       30.16R
SOUTH ST PAUL  CLOUDY    38  32  79 E13       30.18R
LAKE ELMO      CLOUDY    36  32  87 E13       30.19R
$$
MNZ001>005-007-008-013>017-022>024-027-028-251500-
   Northwest Minnesota

CITY           SKY/WX    TMP DP  RH WIND       PRES   REMARKS
BEMIDJI        CLOUDY    33  29  86 SE13G18   30.21S WCI  24
HALLOCK        CLOUDY    34  30  86 SE14      30.15S WCI  24
ROSEAU         MOSUNNY   34  28  80 SE10      30.19S WCI  26
WARROAD          N/A     34  28  80 SE9       30.20F WCI  26
THIEF RVR FALL CLOUDY   N/A N/A N/A SE8       30.20S
CROOKSTON      CLOUDY    34  30  86 SE10      30.19S WCI  26
FOSSTON        CLOUDY    32  30  93 SE13G18   30.19S WCI  22
DETROIT LAKES  CLOUDY    34  30  86 SE20G25   30.19S WCI  22
MOORHEAD       SUNNY     34  30  86 SE6       30.19S WCI  29
PARK RAPIDS    CLOUDY    34  25  69 SE13G23   30.20S WCI  25
MAHNOMEN       CLOUDY    33  29  83 SE13G20   30.18S WCI  24
$$
MNZ006-009>011-018-025>026-251500-
   North Central Minnesota

CITY           SKY/WX    TMP DP  RH WIND       PRES   REMARKS
BAUDETTE       CLOUDY    32  29  88 SE10      30.22R WCI  24
FLAG ISLAND    CLOUDY    30  27  86 SE8       30.21S WCI  23
INTL FALLS     CLOUDY    34  29  82 SE10      30.26S WCI  26
WASKISH        CLOUDY    36  32  87 SE8       30.23S
BIG FORK       CLOUDY    34  27  75 SE9       30.25S WCI  26
LONGVILLE      CLOUDY    34  28  80 E5        30.23S WCI  30
GRAND RAPIDS   CLOUDY    32  25  75 SE10G17   30.27S WCI  24
CRANE LAKE     CLOUDY    32  28  86 CALM      30.31R
ORR            CLOUDY    32  25  74 CALM      30.25S
COOK           CLOUDY    32  27  80 E5        30.28S WCI  27
WALKER         LGT SNOW  32  30  92 E9        30.22S WCI  24
$$
MNZ012-019>021-037-251500-
   Northeast Minnesota

CITY           SKY/WX    TMP DP  RH WIND       PRES   REMARKS
DULUTH         CLOUDY    32  29  88 E20G25    30.25S WCI  20
ELY            CLOUDY    30  27  86 SE9       30.29S WCI  22
HIBBING        CLOUDY    30  26  85 E9        30.27R WCI  22
EVELETH        CLOUDY    32  26  77 E6        30.28F WCI  27
DULUTH HARBOR  CLOUDY    34  30  86 E21       30.30S WCI  22
TWO HARBORS    CLOUDY    36  30  80 E15G22    30.28S
SILVER BAY     CLOUDY    32  28  86 E10G21    30.30S WCI  24
GRAND MARAIS     N/A     31  24  75 NE14G22   30.38R WCI  21
G MARAIS ARPRT CLOUDY    25  18  74 E10       30.32R WCI  15
$$
MNZ029>031-032-039>041-046>048-054>057-064-251500-
   West Central Minnesota

CITY           SKY/WX    TMP DP  RH WIND       PRES   REMARKS
FERGUS FALLS   CLOUDY    32  28  86 SE16      30.23S WCI  21
WHEATON        CLOUDY    34  30  86 E10       30.20S WCI  26
MORRIS         CLOUDY    34  30  86 E12       30.18S WCI  25
ALEXANDRIA     CLOUDY    32  29  88 E14       30.19S WCI  22
ELBOW LAKE     CLOUDY    32  30  92 SE15      30.19S WCI  22
WADENA         CLOUDY    34  27  75 E15G22    30.19F WCI  24
GLENWOOD       CLOUDY    34  30  86 E16       30.18F WCI  23
APPLETON       CLOUDY    36  30  80 CALM      30.19R
BENSON         CLOUDY    36  28  75 SE5       30.20F
ORTONVILLE     CLOUDY    34  30  86 E8        30.18S WCI  27
MADISON        CLOUDY    37  36  93 E9        30.18S
WILLMAR        CLOUDY    36  32  87 E9G16     30.19S
$$
MNZ033>034-036-042>043-049>051-058-059-251500-
   Central Minnesota

CITY           SKY/WX    TMP DP  RH WIND       PRES   REMARKS
ST CLOUD       CLOUDY    35  30  82 E9        30.20R WCI  28
SAUK CENTRE    CLOUDY    32  29  88 E10       30.20R WCI  24
PAYNESVILLE      N/A     34  31  88 E6        30.19R WCI  29
AITKIN         CLOUDY    36  28  75 E8        30.22F
PINE RIVER     CLOUDY    34  28  80 E10       30.25F WCI  26
BRAINERD       CLOUDY    34  28  79 E9        30.23R WCI  27
STAPLES        CLOUDY    34  27  75 E8        30.21S WCI  27
LONG PRAIRIE   CLOUDY    32  28  86 NE14      30.20F WCI  22
LITTLE FALLS   CLOUDY    32  28  86 E6        30.22S WCI  26
LITCHFIELD     CLOUDY    37  34  87 E7        30.18R
BUFFALO        CLOUDY    36  31  82 NE9       30.19S
MAPLE LAKE     CLOUDY    37  32  85 NE9       30.19S
HUTCHINSON     CLOUDY    36  33  88 NE8       30.17S
$$
MNZ037-044-045-052-053-251500-
   East Central Minnesota

CITY           SKY/WX    TMP DP  RH WIND       PRES   REMARKS
PRINCETON      CLOUDY    36  30  80 NE7       30.21R
MORA           CLOUDY    34  30  86 NE6       30.23S WCI  29
CAMBRIDGE      CLOUDY    37  30  75 NE7       30.19S
RUSH CITY      CLOUDY    35  31  85 NE5       30.21F WCI  31
MOOSE LAKE     CLOUDY    34  30  86 E6        30.24R WCI  29
HINCKLEY       CLOUDY    36  32  87 NE7       30.23R
CLOQUET        CLOUDY    32  28  86 E8G17     30.25R WCI  25
MCGREGOR       CLOUDY    34  30  86 E8        30.24S WCI  27
$$
MNZ071>073-080-081-089-090-097-098-251500-
   Southwest Minnesota

CITY           SKY/WX    TMP DP  RH WIND       PRES   REMARKS
MONTEVIDEO     CLOUDY    36  32  87 SE10      30.19S
GRANITE FALLS  CLOUDY    37  33  87 NE8       30.18S
CANBY          CLOUDY    36  34  93 CALM      30.17S
MARSHALL       CLOUDY    36  34  93 E12       30.16S FOG
REDWOOD FALLS  CLOUDY    36  31  82 E7        30.16R
OLIVIA         CLOUDY    36  32  87 E9        30.16S
PIPESTONE      FOG       34  30  86 E7        30.11S VSB 3/4 WCI  28
WINDOM         CLOUDY    36  36 100 NE9       30.11F FOG
WORTHINGTON    CLOUDY    34  34 100 NE16      30.10S FOG     WCI  24
JACKSON        CLOUDY    34  34 100 NE17      30.09F FOG     WCI  23
TRACY          FOG       35  35  99 NE9       30.14S VSB 1   WCI  28
SLAYTON        CLOUDY    33  33  99 NE10G16   30.13S FOG     WCI  25
$$
MNZ065>067-074>077-082>085-091>093-251500-
   South Central Minnesota

CITY           SKY/WX    TMP DP  RH WIND       PRES   REMARKS
MANKATO        CLOUDY    37  33  85 NE13      30.14
NEW ULM        CLOUDY    36  32  87 NE9G16    30.14S
ST JAMES       CLOUDY    36  34  93 NE10      30.14S
FAIRMONT       CLOUDY    37  34  89 NE12      30.10S
GLENCOE        CLOUDY    37  35  90 NE5       30.16R
FARIBAULT      CLOUDY    37  34  87 NE9       30.14S
OWATONNA       CLOUDY    36  34  93 NE12      30.12S
WASECA         CLOUDY    36  34  93 NE12      30.13S
ALBERT LEA     CLOUDY    36  36 100 NE15G23   30.09R FOG
$$
MNZ078>079-086>088-094>096-251500-
   Southeast Minnesota

CITY           SKY/WX    TMP DP  RH WIND       PRES   REMARKS
ROCHESTER      CLOUDY    36  33  89 NE20G26   30.10S
RED WING       CLOUDY    37  30  75 E12G17    30.17R
STANTON        CLOUDY    38  33  81 E10       30.15R
DODGE CENTER   CLOUDY    36  34  93 NE14G20   30.10S FOG
WINONA         CLOUDY    37  32  81 E8        30.16R
AUSTIN         CLOUDY    36  34  93 E15       30.09R FOG
PRESTON        CLOUDY    35  32  90 NE10      30.10R WCI  27
$$
ABBREVIATIONS USED IN REMARKS
   TC - TEMPERATURES IN CELSIUS
  WCI - WIND CHILL INDEX
   HX - HEAT INDEX
  VSB - VISIBILITY
$$




USA.gov is the U.S. government's official web portal to all federal, state and local government web resources and services.